Flag for Norway Weather past 2 weeks in Arendal, Norway

Now
65 °F

Mild.


Feels Like: 65 °F
Forecast: 54 / 64 °F
Wind: 13 mph from Southwest

Location: Torungen Fyr

Current Time: Aug 28, 2015 at 5:14:18 PM

Latest Report: Aug 28, 2015 at 4:00 PM


Visibility: N/A

Pressure: 29.82 "Hg

Humidity: 66%

Dew point: 53 °F

Location of ArendalLocation

Historic Weather in Arendal — Graph

°F

Arendal temperature yesterday

Maximum temperature yesterday: 64 °F (at 12:00 AM)
Minimum temperature yesterday: 60 °F (at 4:00 AM)
Average temperature yesterday: 63 °F

Past Weeks' High & Low Weather Summary

 TemperatureHumidityPressure
High67 °F (Aug 23, 8:00 PM)97% (Aug 26, 2:00 PM)30.34 "Hg (Aug 26, 2:00 PM)
Low56 °F (Aug 28, 4:00 AM)59% (Aug 28, 3:00 PM)29.54 "Hg (Aug 27, 2:00 PM)
Average63 °F82%30.02 "Hg
* Reported Aug 13 3:00 PM — Aug 28 3:00 PM, Arendal, Weather by CustomWeather, © 2015

Note: Actual official high and low records may vary slightly from our data, if they occured in-between our weather recording intervals... More about our weather records

Advertising

Arendal weather history for previous 24 hours

 ConditionsComfort  
Time TempWeatherWind HumidityBarometerVisibility
3:00 PM
Fri, Aug 28
66 °FMild.8 mph59%29.80 "HgN/A
2:00 PM64 °FMild.9 mph61%29.79 "HgN/A
1:00 PM64 °FMild.9 mph64%29.78 "HgN/A
12:00 PM64 °FMild.10 mph63%29.76 "HgN/A
11:00 AM62 °FMild.8 mph69%29.75 "HgN/A
10:00 AM61 °FCool.9 mph74%29.72 "HgN/A
9:00 AM59 °FCool.9 mph80%29.70 "HgN/A
8:00 AM57 °FCool.8 mph85%29.69 "HgN/A
7:00 AM57 °FCool.7 mph88%29.67 "HgN/A
5:00 AM57 °FCool.7 mph86%29.66 "HgN/A
4:00 AM56 °FCool.2 mph87%29.65 "HgN/A
3:00 AM57 °FCool.5 mph87%29.65 "HgN/A
2:00 AM57 °FCool.6 mph86%29.65 "HgN/A
1:00 AM58 °FCool.7 mph87%29.64 "HgN/A
10:00 PM
Thu, Aug 27
61 °FCool.8 mph83%29.61 "HgN/A
9:00 PM62 °FCool.10 mph80%29.59 "HgN/A
8:00 PM62 °FCool.12 mph77%29.58 "HgN/A
7:00 PM64 °FMild.12 mph76%29.57 "HgN/A
6:00 PM64 °FMild.13 mph78%29.56 "HgN/A
5:00 PM64 °FMild.13 mph76%29.55 "HgN/A
Weather by CustomWeather, © 2015

See weather overviewHow to use our weather pages